Terug naar catalogus

SL-14 DEB

ActiefPO
NORAD 46465·DEBRIS·🇷🇺 Russia

Gelanceerd Aug 15, 1991 vanaf Plesetsk Cosmodrome

Loading…

Volgende Passages (komende 24 uur)

TLE

VersSource: Space-Track

Epoch: Sep 13, 2026, 06:36 UTC

1 46465U 91056DA  26256.27522711 -.00000548  00000-0 -15636-2 0  9996
2 46465  82.5565  94.1413 0028858  80.4549 279.9829 13.12057283292530

Volg SL-14 DEB in realtime met AllMySat

Download on the App Store